Wetterdaten: Mittwoch, 25.05.2016
Datum Zeit Auen-Temp. Temp gefhlt Luftfeuchte Luftdruck Regen Wind Richtung Richtung Sonnenschein Taupunkt Windben
25.05.2016 00:00 7,6 C 7,5 C 84 % 1014,6 hPa 0,0 mm 0,0 km/h (0 Bft) S 180 0 min 5,1 C 0,0 km/h (0 Bft)
25.05.2016 00:05 7,6 C 7,5 C 84 % 1014,6 hPa 0,0 mm 0,0 km/h (0 Bft) S 180 0 min 5,1 C 0,0 km/h (0 Bft)
25.05.2016 00:10 7,6 C 7,4 C 84 % 1014,5 hPa 0,0 mm 0,0 km/h (0 Bft) S 180 0 min 5,1 C 0,0 km/h (0 Bft)
25.05.2016 00:15 7,5 C 7,3 C 84 % 1014,5 hPa 0,0 mm 0,0 km/h (0 Bft) W-SW 247 0 min 5,0 C 0,0 km/h (0 Bft)
25.05.2016 00:20 7,5 C 7,3 C 84 % 1014,5 hPa 0,0 mm 0,0 km/h (0 Bft) SW 225 0 min 5,0 C 0,0 km/h (0 Bft)
25.05.2016 00:25 7,4 C 7,2 C 84 % 1014,5 hPa 0,0 mm 0,0 km/h (0 Bft) S 180 0 min 4,9 C 0,0 km/h (0 Bft)
25.05.2016 00:30 7,3 C 7,0 C 84 % 1014,2 hPa 0,0 mm 0,0 km/h (0 Bft) S 180 0 min 4,8 C 0,0 km/h (0 Bft)
25.05.2016 00:35 7,3 C 7,0 C 84 % 1014,2 hPa 0,0 mm 0,0 km/h (0 Bft) S 180 0 min 4,8 C 0,0 km/h (0 Bft)
25.05.2016 00:40 7,2 C 7,0 C 85 % 1014,2 hPa 0,0 mm 0,0 km/h (0 Bft) NO 45 0 min 4,9 C 0,0 km/h (0 Bft)
25.05.2016 00:45 7,2 C 7,0 C 85 % 1014,2 hPa 0,0 mm 0,0 km/h (0 Bft) N-NO 22 0 min 4,9 C 0,0 km/h (0 Bft)
25.05.2016 00:50 7,1 C 6,9 C 85 % 1014,2 hPa 0,0 mm 0,0 km/h (0 Bft) N-NO 22 0 min 4,8 C 0,0 km/h (0 Bft)
25.05.2016 00:55 7,1 C 6,8 C 85 % 1014,2 hPa 0,0 mm 0,0 km/h (0 Bft) N-NW 337 0 min 4,8 C 0,0 km/h (0 Bft)
25.05.2016 01:00 7,1 C 6,8 C 85 % 1014,2 hPa 0,0 mm 0,0 km/h (0 Bft) S 180 0 min 4,8 C 0,0 km/h (0 Bft)
25.05.2016 01:05 7,1 C 6,7 C 85 % 1014,2 hPa 0,0 mm 0,0 km/h (0 Bft) S-SO 157 0 min 4,8 C 0,0 km/h (0 Bft)
25.05.2016 01:10 7,0 C 6,7 C 85 % 1014,3 hPa 0,0 mm 0,0 km/h (0 Bft) S 180 0 min 4,7 C 0,0 km/h (0 Bft)
25.05.2016 01:15 7,0 C 6,7 C 85 % 1014,3 hPa 0,0 mm 0,0 km/h (0 Bft) SO 135 0 min 4,7 C 0,0 km/h (0 Bft)
25.05.2016 01:20 7,0 C 6,7 C 85 % 1014,3 hPa 0,0 mm 0,0 km/h (0 Bft) S-SW 202 0 min 4,7 C 0,0 km/h (0 Bft)
25.05.2016 01:25 6,9 C 6,6 C 85 % 1014,3 hPa 0,0 mm 0,0 km/h (0 Bft) S 180 0 min 4,6 C 0,0 km/h (0 Bft)
25.05.2016 01:30 6,8 C 6,6 C 85 % 1014,1 hPa 0,0 mm 0,0 km/h (0 Bft) S 180 0 min 4,5 C 0,0 km/h (0 Bft)
25.05.2016 01:35 6,7 C 6,4 C 85 % 1014,1 hPa 0,0 mm 0,0 km/h (0 Bft) S-SO 157 0 min 4,4 C 0,0 km/h (0 Bft)
25.05.2016 01:40 6,5 C 6,1 C 85 % 1014,1 hPa 0,0 mm 0,0 km/h (0 Bft) S-SW 202 0 min 4,2 C 0,0 km/h (0 Bft)
25.05.2016 01:45 6,4 C 5,9 C 85 % 1014,1 hPa 0,0 mm 0,0 km/h (0 Bft) SO 135 0 min 4,1 C 0,0 km/h (0 Bft)
25.05.2016 01:50 6,2 C 5,7 C 85 % 1014,4 hPa 0,0 mm 0,0 km/h (0 Bft) O-NO 67 0 min 3,9 C 0,0 km/h (0 Bft)
25.05.2016 01:55 6,1 C 5,6 C 85 % 1014,4 hPa 0,0 mm 0,0 km/h (0 Bft) O-NO 67 0 min 3,8 C 0,0 km/h (0 Bft)
25.05.2016 02:00 6,0 C 5,6 C 85 % 1014,4 hPa 0,0 mm 0,0 km/h (0 Bft) S-SO 157 0 min 3,7 C 0,0 km/h (0 Bft)
25.05.2016 02:05 6,0 C 5,5 C 85 % 1014,4 hPa 0,0 mm 0,0 km/h (0 Bft) SO 135 0 min 3,7 C 0,0 km/h (0 Bft)
25.05.2016 02:10 5,9 C 5,4 C 86 % 1014,4 hPa 0,0 mm 0,0 km/h (0 Bft) S 180 0 min 3,7 C 0,0 km/h (0 Bft)
25.05.2016 02:15 5,7 C 5,4 C 86 % 1014,4 hPa 0,0 mm 0,0 km/h (0 Bft) W-SW 247 0 min 3,5 C 0,0 km/h (0 Bft)
25.05.2016 02:20 5,6 C 5,5 C 86 % 1014,4 hPa 0,0 mm 0,0 km/h (0 Bft) N-NO 22 0 min 3,4 C 0,0 km/h (0 Bft)
25.05.2016 02:25 5,6 C 5,5 C 86 % 1014,4 hPa 0,0 mm 0,0 km/h (0 Bft) N-NO 22 0 min 3,4 C 0,0 km/h (0 Bft)
25.05.2016 02:30 5,8 C 5,7 C 86 % 1014,2 hPa 0,0 mm 0,0 km/h (0 Bft) S 180 0 min 3,6 C 0,0 km/h (0 Bft)
25.05.2016 02:35 5,8 C 5,8 C 86 % 1014,2 hPa 0,0 mm 0,0 km/h (0 Bft) SW 225 0 min 3,6 C 0,0 km/h (0 Bft)
25.05.2016 02:40 6,0 C 6,0 C 86 % 1014,2 hPa 0,0 mm 0,0 km/h (0 Bft) S 180 0 min 3,8 C 0,0 km/h (0 Bft)
25.05.2016 02:45 6,1 C 6,1 C 86 % 1014,2 hPa 0,0 mm 0,0 km/h (0 Bft) S-SO 157 0 min 3,9 C 0,0 km/h (0 Bft)
25.05.2016 02:48 6,2 C 6,2 C 86 % 1014,1 hPa 0,0 mm 0,0 km/h (0 Bft) SO 135 0 min 4,0 C 0,0 km/h (0 Bft)
25.05.2016 02:50 6,2 C 6,2 C 86 % 1014,1 hPa 0,0 mm 0,0 km/h (0 Bft) SO 135 0 min 4,0 C 0,0 km/h (0 Bft)
25.05.2016 02:55 6,3 C 6,2 C 86 % 1014,1 hPa 0,0 mm 0,0 km/h (0 Bft) S-SO 157 0 min 4,1 C 0,0 km/h (0 Bft)
25.05.2016 03:00 6,3 C 6,3 C 86 % 1014,1 hPa 0,0 mm 0,0 km/h (0 Bft) SO 135 0 min 4,1 C 0,0 km/h (0 Bft)
25.05.2016 03:05 6,4 C 6,3 C 86 % 1014,1 hPa 0,0 mm 0,0 km/h (0 Bft) SW 225 0 min 4,2 C 0,0 km/h (0 Bft)
25.05.2016 03:10 6,4 C 6,4 C 86 % 1014,1 hPa 0,0 mm 0,0 km/h (0 Bft) W-SW 247 0 min 4,2 C 0,0 km/h (0 Bft)
25.05.2016 03:15 6,4 C 6,3 C 86 % 1014,1 hPa 0,0 mm 0,0 km/h (0 Bft) N-NO 22 0 min 4,2 C 0,0 km/h (0 Bft)
25.05.2016 03:20 6,3 C 6,3 C 86 % 1014,1 hPa 0,0 mm 0,0 km/h (0 Bft) N-NO 22 0 min 4,1 C 0,0 km/h (0 Bft)
25.05.2016 03:25 6,3 C 6,3 C 86 % 1014,1 hPa 0,0 mm 0,0 km/h (0 Bft) W-NW 292 0 min 4,1 C 0,0 km/h (0 Bft)
25.05.2016 03:30 6,4 C 6,3 C 86 % 1014,1 hPa 0,0 mm 0,0 km/h (0 Bft) N-NW 337 0 min 4,2 C 0,0 km/h (0 Bft)
25.05.2016 03:35 6,4 C 6,4 C 86 % 1014,1 hPa 0,0 mm 0,0 km/h (0 Bft) W 270 0 min 4,2 C 0,0 km/h (0 Bft)
25.05.2016 03:40 6,4 C 6,4 C 86 % 1014,1 hPa 0,0 mm 0,0 km/h (0 Bft) W 270 0 min 4,2 C 0,0 km/h (0 Bft)
25.05.2016 03:45 6,4 C 6,4 C 86 % 1014,1 hPa 0,0 mm 0,0 km/h (0 Bft) W-NW 292 0 min 4,2 C 0,0 km/h (0 Bft)
25.05.2016 03:50 6,5 C 6,5 C 86 % 1014,1 hPa 0,0 mm 0,0 km/h (0 Bft) N-NO 22 0 min 4,3 C 0,0 km/h (0 Bft)
25.05.2016 03:55 6,5 C 6,5 C 87 % 1014,1 hPa 0,0 mm 0,0 km/h (0 Bft) NO 45 0 min 4,5 C 0,0 km/h (0 Bft)
25.05.2016 04:00 6,6 C 6,6 C 87 % 1014,1 hPa 0,0 mm 0,0 km/h (0 Bft) W 270 0 min 4,6 C 0,0 km/h (0 Bft)
25.05.2016 04:05 6,6 C 6,6 C 87 % 1014,1 hPa 0,0 mm 0,0 km/h (0 Bft) NW 315 0 min 4,6 C 0,0 km/h (0 Bft)
25.05.2016 04:10 6,6 C 6,6 C 87 % 1014,1 hPa 0,0 mm 0,0 km/h (0 Bft) N-NO 22 0 min 4,6 C 0,0 km/h (0 Bft)
25.05.2016 04:15 6,6 C 6,6 C 87 % 1014,1 hPa 0,0 mm 0,0 km/h (0 Bft) N-NO 22 0 min 4,6 C 0,0 km/h (0 Bft)
25.05.2016 04:20 6,6 C 6,6 C 87 % 1014,1 hPa 0,0 mm 0,0 km/h (0 Bft) NO 45 0 min 4,6 C 0,0 km/h (0 Bft)
25.05.2016 04:25 6,6 C 6,7 C 87 % 1014,1 hPa 0,0 mm 0,0 km/h (0 Bft) N-NO 22 0 min 4,6 C 0,0 km/h (0 Bft)
25.05.2016 04:30 6,7 C 6,7 C 87 % 1013,9 hPa 0,0 mm 0,0 km/h (0 Bft) W 270 0 min 4,7 C 0,0 km/h (0 Bft)
25.05.2016 04:35 6,7 C 6,7 C 87 % 1013,9 hPa 0,0 mm 0,0 km/h (0 Bft) W 270 0 min 4,7 C 0,0 km/h (0 Bft)
25.05.2016 04:40 6,7 C 6,7 C 87 % 1013,9 hPa 0,0 mm 0,0 km/h (0 Bft) N-NW 337 0 min 4,7 C 0,0 km/h (0 Bft)
25.05.2016 04:45 6,7 C 6,8 C 87 % 1013,9 hPa 0,0 mm 0,0 km/h (0 Bft) W-NW 292 0 min 4,7 C 0,0 km/h (0 Bft)
25.05.2016 04:50 6,8 C 6,8 C 87 % 1013,7 hPa 0,0 mm 0,0 km/h (0 Bft) NW 315 0 min 4,8 C 0,0 km/h (0 Bft)
25.05.2016 04:55 6,8 C 6,8 C 87 % 1013,7 hPa 0,0 mm 0,0 km/h (0 Bft) N 360 0 min 4,8 C 0,0 km/h (0 Bft)
25.05.2016 05:00 6,7 C 6,7 C 87 % 1013,7 hPa 0,0 mm 0,0 km/h (0 Bft) N-NO 22 0 min 4,7 C 0,0 km/h (0 Bft)
25.05.2016 05:05 6,7 C 6,7 C 87 % 1013,7 hPa 0,0 mm 0,0 km/h (0 Bft) N-NW 337 0 min 4,7 C 0,0 km/h (0 Bft)
25.05.2016 05:10 6,7 C 6,7 C 87 % 1014,0 hPa 0,0 mm 0,0 km/h (0 Bft) N-NO 22 0 min 4,7 C 0,0 km/h (0 Bft)
25.05.2016 05:15 6,7 C 6,7 C 87 % 1014,0 hPa 0,0 mm 0,0 km/h (0 Bft) N-NO 22 0 min 4,7 C 0,0 km/h (0 Bft)
25.05.2016 05:20 6,8 C 6,8 C 87 % 1014,0 hPa 0,0 mm 0,0 km/h (0 Bft) N-NW 337 0 min 4,8 C 0,0 km/h (0 Bft)
25.05.2016 05:25 6,8 C 6,8 C 87 % 1014,0 hPa 0,0 mm 0,0 km/h (0 Bft) N-NO 22 0 min 4,8 C 0,0 km/h (0 Bft)
25.05.2016 05:30 6,9 C 6,9 C 87 % 1013,7 hPa 0,0 mm 0,0 km/h (0 Bft) NW 315 0 min 4,9 C 0,0 km/h (0 Bft)
25.05.2016 05:35 6,9 C 6,9 C 87 % 1013,7 hPa 0,0 mm 0,0 km/h (0 Bft) W 270 0 min 4,9 C 0,0 km/h (0 Bft)
25.05.2016 05:40 6,9 C 6,9 C 87 % 1013,7 hPa 0,0 mm 0,0 km/h (0 Bft) W-NW 292 0 min 4,9 C 0,0 km/h (0 Bft)
25.05.2016 05:45 6,9 C 6,9 C 87 % 1013,7 hPa 0,0 mm 0,0 km/h (0 Bft) W-NW 292 0 min 4,9 C 0,0 km/h (0 Bft)
25.05.2016 05:50 6,9 C 6,9 C 87 % 1013,8 hPa 0,0 mm 0,0 km/h (0 Bft) W-NW 292 0 min 4,9 C 0,0 km/h (0 Bft)
25.05.2016 05:51 6,9 C 6,9 C 87 % 1013,8 hPa 0,0 mm 0,0 km/h (0 Bft) W-NW 292 0 min 4,9 C 0,0 km/h (0 Bft)
25.05.2016 05:55 6,9 C 6,9 C 87 % 1013,8 hPa 0,0 mm 0,0 km/h (0 Bft) W 270 0 min 4,9 C 0,0 km/h (0 Bft)
25.05.2016 06:00 6,9 C 7,0 C 87 % 1013,8 hPa 0,0 mm 0,0 km/h (0 Bft) W-NW 292 0 min 4,9 C 0,0 km/h (0 Bft)
25.05.2016 06:05 7,0 C 7,0 C 86 % 1013,8 hPa 0,0 mm 0,0 km/h (0 Bft) NW 315 0 min 4,8 C 0,0 km/h (0 Bft)
25.05.2016 06:10 7,0 C 7,1 C 87 % 1013,9 hPa 0,0 mm 0,0 km/h (0 Bft) NW 315 0 min 5,0 C 0,0 km/h (0 Bft)
25.05.2016 06:15 7,1 C 7,2 C 87 % 1013,9 hPa 0,0 mm 0,0 km/h (0 Bft) NW 315 0 min 5,1 C 0,0 km/h (0 Bft)
25.05.2016 06:20 7,1 C 7,2 C 87 % 1013,9 hPa 0,0 mm 0,0 km/h (0 Bft) N-NW 337 0 min 5,1 C 0,0 km/h (0 Bft)
25.05.2016 06:25 7,1 C 7,3 C 87 % 1013,9 hPa 0,0 mm 0,0 km/h (0 Bft) N 360 0 min 5,1 C 0,0 km/h (0 Bft)
25.05.2016 06:30 7,2 C 7,4 C 87 % 1014,0 hPa 0,0 mm 0,0 km/h (0 Bft) N-NW 337 0 min 5,2 C 0,0 km/h (0 Bft)
25.05.2016 06:35 7,2 C 7,5 C 87 % 1014,0 hPa 0,0 mm 0,0 km/h (0 Bft) W-NW 292 0 min 5,2 C 0,0 km/h (0 Bft)
25.05.2016 06:40 7,3 C 7,8 C 87 % 1014,0 hPa 0,0 mm 0,0 km/h (0 Bft) N 360 0 min 5,3 C 0,0 km/h (0 Bft)
25.05.2016 06:45 7,4 C 7,8 C 87 % 1014,0 hPa 0,0 mm 0,0 km/h (0 Bft) N-NW 337 0 min 5,4 C 0,0 km/h (0 Bft)
25.05.2016 06:50 7,5 C 8,2 C 87 % 1013,9 hPa 0,0 mm 0,0 km/h (0 Bft) W-NW 292 0 min 5,5 C 0,0 km/h (0 Bft)
25.05.2016 06:55 7,6 C 8,4 C 87 % 1013,9 hPa 0,0 mm 0,0 km/h (0 Bft) W-NW 292 0 min 5,6 C 0,0 km/h (0 Bft)
25.05.2016 07:00 7,8 C 8,7 C 87 % 1013,9 hPa 0,0 mm 0,0 km/h (0 Bft) W-NW 292 0 min 5,8 C 0,0 km/h (0 Bft)
25.05.2016 07:05 7,9 C 9,0 C 87 % 1013,9 hPa 0,0 mm 0,0 km/h (0 Bft) NW 315 0 min 5,9 C 0,0 km/h (0 Bft)
25.05.2016 07:10 8,2 C 9,5 C 87 % 1014,0 hPa 0,0 mm 0,0 km/h (0 Bft) N-NW 337 0 min 6,2 C 0,0 km/h (0 Bft)
25.05.2016 07:15 8,6 C 10,1 C 87 % 1014,0 hPa 0,0 mm 0,0 km/h (0 Bft) O-NO 67 0 min 6,6 C 0,0 km/h (0 Bft)
25.05.2016 07:20 9,7 C 13,6 C 86 % 1014,0 hPa 0,0 mm 0,0 km/h (0 Bft) NW 315 5 min 7,5 C 0,0 km/h (0 Bft)
25.05.2016 07:25 9,8 C 14,1 C 86 % 1014,0 hPa 0,0 mm 0,0 km/h (0 Bft) NW 315 5 min 7,6 C 0,0 km/h (0 Bft)
25.05.2016 07:30 9,4 C 12,8 C 85 % 1014,1 hPa 0,0 mm 0,0 km/h (0 Bft) N-NO 22 5 min 7,0 C 0,0 km/h (0 Bft)
25.05.2016 07:35 9,2 C 12,2 C 85 % 1014,1 hPa 0,0 mm 0,6 km/h (0 Bft) O-NO 67 5 min 6,8 C 6,0 km/h (2 Bft)
25.05.2016 07:40 9,0 C 11,2 C 84 % 1014,1 hPa 0,0 mm 1,5 km/h (1 Bft) NO 45 0 min 6,4 C 7,7 km/h (2 Bft)
25.05.2016 07:45 8,9 C 10,8 C 84 % 1014,1 hPa 0,0 mm 3,6 km/h (1 Bft) N 360 0 min 6,3 C 4,2 km/h (1 Bft)
25.05.2016 07:50 8,8 C 10,5 C 83 % 1014,2 hPa 0,0 mm 3,3 km/h (1 Bft) N-NO 22 0 min 6,1 C 9,5 km/h (2 Bft)
25.05.2016 07:55 8,9 C 10,4 C 83 % 1014,2 hPa 0,0 mm 2,4 km/h (1 Bft) W 270 0 min 6,2 C 0,0 km/h (0 Bft)
25.05.2016 08:00 9,0 C 10,3 C 83 % 1014,2 hPa 0,0 mm 5,4 km/h (1 Bft) NO 45 0 min 6,3 C 11,0 km/h (2 Bft)
25.05.2016 08:05 9,0 C 10,2 C 82 % 1014,2 hPa 0,0 mm 6,3 km/h (2 Bft) O-NO 67 0 min 6,1 C 6,6 km/h (2 Bft)
25.05.2016 08:10 9,1 C 10,4 C 82 % 1014,2 hPa 0,0 mm 5,1 km/h (1 Bft) NO 45 0 min 6,2 C 8,0 km/h (2 Bft)
25.05.2016 08:15 9,0 C 10,4 C 82 % 1014,2 hPa 0,0 mm 4,8 km/h (1 Bft) NO 45 0 min 6,1 C 4,2 km/h (1 Bft)
25.05.2016 08:20 9,0 C 10,3 C 81 % 1014,2 hPa 0,0 mm 6,3 km/h (2 Bft) O-NO 67 0 min 5,9 C 14,0 km/h (3 Bft)
25.05.2016 08:25 9,1 C 10,3 C 81 % 1014,2 hPa 0,0 mm 6,0 km/h (2 Bft) NW 315 0 min 6,0 C 4,2 km/h (1 Bft)
25.05.2016 08:30 9,3 C 10,6 C 81 % 1014,1 hPa 0,0 mm 4,5 km/h (1 Bft) N-NW 337 0 min 6,2 C 0,0 km/h (0 Bft)
25.05.2016 08:35 9,5 C 11,2 C 81 % 1014,1 hPa 0,0 mm 2,4 km/h (1 Bft) W-NW 292 0 min 6,4 C 0,0 km/h (0 Bft)
25.05.2016 08:40 10,0 C 12,2 C 81 % 1014,1 hPa 0,0 mm 0,6 km/h (0 Bft) NO 45 0 min 6,9 C 7,5 km/h (2 Bft)
25.05.2016 08:45 10,5 C 12,8 C 80 % 1014,1 hPa 0,0 mm 0,9 km/h (0 Bft) N-NW 337 0 min 7,2 C 0,0 km/h (0 Bft)
25.05.2016 08:50 11,0 C 15,7 C 78 % 1014,2 hPa 0,0 mm 3,0 km/h (1 Bft) NO 45 5 min 7,3 C 5,7 km/h (1 Bft)
25.05.2016 08:52 11,0 C 15,7 C 78 % 1014,2 hPa 0,0 mm 3,0 km/h (1 Bft) NO 45 2 min 7,3 C 5,7 km/h (1 Bft)
25.05.2016 08:55 10,8 C 15,0 C 78 % 1014,2 hPa 0,0 mm 3,3 km/h (1 Bft) W-SW 247 3 min 7,1 C 7,2 km/h (2 Bft)
25.05.2016 09:00 10,9 C 14,9 C 77 % 1014,2 hPa 0,0 mm 4,2 km/h (1 Bft) O 90 5 min 7,0 C 8,9 km/h (2 Bft)
25.05.2016 09:05 11,3 C 15,8 C 76 % 1014,2 hPa 0,0 mm 3,9 km/h (1 Bft) O-NO 67 5 min 7,2 C 0,0 km/h (0 Bft)
25.05.2016 09:10 10,9 C 15,5 C 76 % 1014,2 hPa 0,0 mm 4,8 km/h (1 Bft) NO 45 5 min 6,8 C 17,3 km/h (3 Bft)
25.05.2016 09:15 10,8 C 14,6 C 76 % 1014,2 hPa 0,0 mm 4,5 km/h (1 Bft) W-SW 247 5 min 6,7 C 4,5 km/h (1 Bft)
25.05.2016 09:20 10,7 C 14,2 C 76 % 1014,2 hPa 0,0 mm 4,8 km/h (1 Bft) O-NO 67 5 min 6,6 C 7,5 km/h (2 Bft)
25.05.2016 09:25 10,7 C 14,0 C 75 % 1014,2 hPa 0,0 mm 5,7 km/h (1 Bft) O-NO 67 5 min 6,5 C 0,0 km/h (0 Bft)
25.05.2016 09:30 11,3 C 14,9 C 76 % 1014,6 hPa 0,0 mm 3,0 km/h (1 Bft) O-NO 67 5 min 7,2 C 0,0 km/h (0 Bft)
25.05.2016 09:35 11,7 C 15,5 C 76 % 1014,6 hPa 0,0 mm 0,9 km/h (0 Bft) O-NO 67 5 min 7,6 C 0,0 km/h (0 Bft)
25.05.2016 09:40 11,9 C 17,6 C 74 % 1014,6 hPa 0,0 mm 0,6 km/h (0 Bft) W-SW 247 5 min 7,4 C 0,0 km/h (0 Bft)
25.05.2016 09:45 11,9 C 17,1 C 74 % 1014,6 hPa 0,0 mm 1,2 km/h (1 Bft) NO 45 5 min 7,4 C 5,7 km/h (1 Bft)
25.05.2016 09:50 11,8 C 16,5 C 74 % 1014,9 hPa 0,0 mm 3,3 km/h (1 Bft) N-NO 22 5 min 7,3 C 5,1 km/h (1 Bft)
25.05.2016 09:55 11,6 C 15,9 C 73 % 1014,9 hPa 0,0 mm 5,7 km/h (1 Bft) W 270 5 min 6,9 C 0,0 km/h (0 Bft)
25.05.2016 10:00 12,0 C 16,3 C 73 % 1014,9 hPa 0,0 mm 7,2 km/h (2 Bft) N-NW 337 5 min 7,3 C 17,6 km/h (3 Bft)
25.05.2016 10:05 12,0 C 16,1 C 73 % 1014,9 hPa 0,0 mm 5,7 km/h (1 Bft) N-NO 22 5 min 7,3 C 8,0 km/h (2 Bft)
25.05.2016 10:10 11,9 C 15,6 C 73 % 1015,1 hPa 0,0 mm 4,2 km/h (1 Bft) N-NO 22 5 min 7,2 C 4,2 km/h (1 Bft)
25.05.2016 10:15 12,0 C 15,8 C 72 % 1015,1 hPa 0,0 mm 2,1 km/h (1 Bft) N-NW 337 5 min 7,1 C 0,0 km/h (0 Bft)
25.05.2016 10:20 12,1 C 15,9 C 72 % 1015,1 hPa 0,0 mm 2,1 km/h (1 Bft) N-NO 22 5 min 7,2 C 6,6 km/h (2 Bft)
25.05.2016 10:25 12,1 C 15,7 C 72 % 1015,1 hPa 0,0 mm 2,7 km/h (1 Bft) N-NO 22 5 min 7,2 C 0,0 km/h (0 Bft)
25.05.2016 10:30 12,2 C 16,0 C 72 % 1015,1 hPa 0,0 mm 3,0 km/h (1 Bft) SO 135 5 min 7,3 C 0,0 km/h (0 Bft)
25.05.2016 10:35 12,7 C 17,2 C 71 % 1015,1 hPa 0,0 mm 1,5 km/h (1 Bft) S 180 5 min 7,6 C 0,0 km/h (0 Bft)
25.05.2016 10:40 14,0 C 20,4 C 69 % 1015,1 hPa 0,0 mm 0,0 km/h (0 Bft) S-SO 157 5 min 8,4 C 0,0 km/h (0 Bft)
25.05.2016 10:45 15,1 C 22,0 C 67 % 1015,1 hPa 0,0 mm 0,9 km/h (0 Bft) N-NO 22 5 min 9,0 C 15,5 km/h (3 Bft)
25.05.2016 10:50 14,9 C 21,9 C 66 % 1015,6 hPa 0,0 mm 3,3 km/h (1 Bft) NW 315 5 min 8,6 C 5,1 km/h (1 Bft)
25.05.2016 10:55 15,1 C 22,5 C 67 % 1015,6 hPa 0,0 mm 4,2 km/h (1 Bft) N-NW 337 5 min 9,0 C 0,0 km/h (0 Bft)
25.05.2016 11:00 14,2 C 20,0 C 66 % 1015,6 hPa 0,0 mm 4,5 km/h (1 Bft) O-SO 112 5 min 7,9 C 3,3 km/h (1 Bft)
25.05.2016 11:05 13,7 C 18,1 C 67 % 1015,6 hPa 0,0 mm 4,5 km/h (1 Bft) NW 315 5 min 7,7 C 0,0 km/h (0 Bft)
25.05.2016 11:10 14,8 C 19,2 C 68 % 1015,7 hPa 0,0 mm 2,1 km/h (1 Bft) W-NW 292 5 min 9,0 C 0,0 km/h (0 Bft)
25.05.2016 11:15 15,2 C 20,5 C 67 % 1015,7 hPa 0,0 mm 2,1 km/h (1 Bft) W-NW 292 5 min 9,1 C 10,1 km/h (2 Bft)
25.05.2016 11:20 15,2 C 21,1 C 65 % 1015,7 hPa 0,0 mm 4,8 km/h (1 Bft) SO 135 5 min 8,7 C 21,5 km/h (4 Bft)
25.05.2016 11:25 15,1 C 21,1 C 65 % 1015,7 hPa 0,0 mm 6,3 km/h (2 Bft) N-NW 337 5 min 8,6 C 8,3 km/h (2 Bft)
25.05.2016 11:30 15,3 C 21,4 C 66 % 1016,0 hPa 0,0 mm 5,7 km/h (1 Bft) N-NO 22 5 min 9,0 C 0,0 km/h (0 Bft)
25.05.2016 11:35 15,8 C 22,0 C 66 % 1016,0 hPa 0,0 mm 5,4 km/h (1 Bft) N-NW 337 5 min 9,5 C 10,4 km/h (2 Bft)
25.05.2016 11:40 15,8 C 21,5 C 66 % 1016,0 hPa 0,0 mm 7,2 km/h (2 Bft) O-NO 67 5 min 9,5 C 11,3 km/h (2 Bft)
25.05.2016 11:45 15,7 C 21,7 C 65 % 1016,0 hPa 0,0 mm 7,2 km/h (2 Bft) O-NO 67 5 min 9,1 C 10,1 km/h (2 Bft)
25.05.2016 11:50 15,8 C 22,2 C 64 % 1016,1 hPa 0,0 mm 3,9 km/h (1 Bft) NO 45 5 min 9,0 C 7,7 km/h (2 Bft)
25.05.2016 11:54 16,0 C 22,2 C 63 % 1016,1 hPa 0,0 mm 3,6 km/h (1 Bft) W-NW 292 4 min 9,0 C 4,2 km/h (1 Bft)
25.05.2016 11:55 16,0 C 22,2 C 63 % 1016,1 hPa 0,0 mm 3,6 km/h (1 Bft) W-NW 292 1 min 9,0 C 4,2 km/h (1 Bft)
25.05.2016 12:00 16,4 C 22,1 C 62 % 1016,1 hPa 0,0 mm 6,3 km/h (2 Bft) O-SO 112 5 min 9,1 C 8,0 km/h (2 Bft)
25.05.2016 12:05 16,5 C 22,1 C 61 % 1016,1 hPa 0,0 mm 6,0 km/h (2 Bft) SO 135 5 min 9,0 C 0,0 km/h (0 Bft)
25.05.2016 12:10 16,6 C 22,8 C 59 % 1016,6 hPa 0,0 mm 3,0 km/h (1 Bft) NO 45 5 min 8,6 C 6,3 km/h (2 Bft)
25.05.2016 12:15 16,8 C 23,0 C 60 % 1016,6 hPa 0,0 mm 3,3 km/h (1 Bft) NO 45 5 min 9,0 C 10,1 km/h (2 Bft)
25.05.2016 12:20 16,6 C 22,7 C 59 % 1016,6 hPa 0,0 mm 4,2 km/h (1 Bft) S 180 5 min 8,6 C 5,1 km/h (1 Bft)
25.05.2016 12:25 17,0 C 22,8 C 59 % 1016,6 hPa 0,0 mm 4,5 km/h (1 Bft) SO 135 5 min 8,9 C 6,0 km/h (2 Bft)
25.05.2016 12:30 17,4 C 23,3 C 59 % 1016,2 hPa 0,0 mm 3,3 km/h (1 Bft) N-NW 337 5 min 9,3 C 0,0 km/h (0 Bft)
25.05.2016 12:35 17,2 C 23,6 C 59 % 1016,2 hPa 0,0 mm 2,4 km/h (1 Bft) NW 315 5 min 9,1 C 0,0 km/h (0 Bft)
25.05.2016 12:40 17,3 C 23,6 C 59 % 1016,2 hPa 0,0 mm 3,6 km/h (1 Bft) O 90 5 min 9,2 C 0,0 km/h (0 Bft)
25.05.2016 12:45 17,5 C 23,8 C 59 % 1016,2 hPa 0,0 mm 3,9 km/h (1 Bft) NO 45 5 min 9,4 C 6,0 km/h (2 Bft)
25.05.2016 12:50 17,9 C 23,8 C 59 % 1016,4 hPa 0,0 mm 4,8 km/h (1 Bft) O 90 5 min 9,8 C 0,0 km/h (0 Bft)
25.05.2016 12:55 17,9 C 23,8 C 57 % 1016,4 hPa 0,0 mm 5,4 km/h (1 Bft) N-NO 22 5 min 9,3 C 8,0 km/h (2 Bft)
25.05.2016 13:00 17,9 C 24,0 C 58 % 1016,4 hPa 0,0 mm 4,5 km/h (1 Bft) N-NO 22 5 min 9,5 C 6,6 km/h (2 Bft)
25.05.2016 13:05 18,1 C 24,4 C 58 % 1016,4 hPa 0,0 mm 3,9 km/h (1 Bft) W 270 5 min 9,7 C 8,9 km/h (2 Bft)
25.05.2016 13:10 18,2 C 24,1 C 57 % 1016,1 hPa 0,0 mm 5,7 km/h (1 Bft) N-NO 22 5 min 9,5 C 7,5 km/h (2 Bft)
25.05.2016 13:15 18,4 C 24,0 C 57 % 1016,1 hPa 0,0 mm 7,2 km/h (2 Bft) NW 315 5 min 9,7 C 8,0 km/h (2 Bft)
25.05.2016 13:20 18,3 C 24,2 C 58 % 1016,1 hPa 0,0 mm 5,4 km/h (1 Bft) O-SO 112 5 min 9,9 C 7,5 km/h (2 Bft)
25.05.2016 13:25 18,4 C 24,1 C 58 % 1016,1 hPa 0,0 mm 5,7 km/h (1 Bft) N-NO 22 5 min 10,0 C 9,8 km/h (2 Bft)
25.05.2016 13:30 18,3 C 24,5 C 58 % 1015,9 hPa 0,0 mm 5,1 km/h (1 Bft) N-NO 22 5 min 9,9 C 11,9 km/h (2 Bft)
25.05.2016 13:35 18,2 C 24,1 C 58 % 1015,9 hPa 0,0 mm 4,8 km/h (1 Bft) W-SW 247 5 min 9,8 C 5,7 km/h (1 Bft)
25.05.2016 13:40 18,5 C 24,2 C 58 % 1015,9 hPa 0,0 mm 6,3 km/h (2 Bft) N 360 5 min 10,1 C 9,8 km/h (2 Bft)
25.05.2016 13:45 18,4 C 24,1 C 58 % 1015,9 hPa 0,0 mm 6,3 km/h (2 Bft) O 90 5 min 10,0 C 5,4 km/h (1 Bft)
25.05.2016 13:50 18,9 C 24,4 C 58 % 1015,6 hPa 0,0 mm 6,3 km/h (2 Bft) N 360 5 min 10,5 C 3,9 km/h (1 Bft)
25.05.2016 13:55 19,0 C 24,8 C 57 % 1015,6 hPa 0,0 mm 5,1 km/h (1 Bft) O-NO 67 5 min 10,3 C 16,4 km/h (3 Bft)
25.05.2016 14:00 18,7 C 24,5 C 58 % 1015,6 hPa 0,0 mm 5,7 km/h (1 Bft) N-NO 22 5 min 10,3 C 7,2 km/h (2 Bft)
25.05.2016 14:05 18,8 C 24,6 C 58 % 1015,6 hPa 0,0 mm 6,3 km/h (2 Bft) O-NO 67 5 min 10,4 C 6,6 km/h (2 Bft)
25.05.2016 14:10 19,0 C 25,0 C 58 % 1015,4 hPa 0,0 mm 4,2 km/h (1 Bft) NW 315 5 min 10,5 C 0,0 km/h (0 Bft)
25.05.2016 14:15 19,0 C 24,9 C 56 % 1015,4 hPa 0,0 mm 5,7 km/h (1 Bft) N-NO 22 5 min 10,0 C 10,7 km/h (2 Bft)
25.05.2016 14:20 19,2 C 24,9 C 56 % 1015,4 hPa 0,0 mm 7,2 km/h (2 Bft) N-NW 337 5 min 10,2 C 17,6 km/h (3 Bft)
25.05.2016 14:25 19,1 C 24,5 C 54 % 1015,4 hPa 0,0 mm 8,3 km/h (2 Bft) N-NO 22 5 min 9,6 C 11,9 km/h (2 Bft)
25.05.2016 14:30 18,9 C 24,2 C 54 % 1015,2 hPa 0,0 mm 8,6 km/h (2 Bft) O-NO 67 5 min 9,4 C 6,0 km/h (2 Bft)
25.05.2016 14:35 19,0 C 24,5 C 55 % 1015,2 hPa 0,0 mm 7,7 km/h (2 Bft) NW 315 5 min 9,8 C 8,6 km/h (2 Bft)
25.05.2016 14:40 19,1 C 24,7 C 52 % 1015,2 hPa 0,0 mm 6,6 km/h (2 Bft) N-NW 337 5 min 9,0 C 10,7 km/h (2 Bft)
25.05.2016 14:45 18,9 C 24,5 C 50 % 1015,2 hPa 0,0 mm 6,9 km/h (2 Bft) O-NO 67 5 min 8,2 C 10,1 km/h (2 Bft)
25.05.2016 14:50 19,4 C 24,8 C 53 % 1015,1 hPa 0,0 mm 7,7 km/h (2 Bft) W 270 5 min 9,6 C 6,6 km/h (2 Bft)
25.05.2016 14:53 19,4 C 24,8 C 51 % 1015,1 hPa 0,0 mm 7,7 km/h (2 Bft) O-NO 67 3 min 9,0 C 12,5 km/h (3 Bft)
25.05.2016 14:55 19,4 C 24,8 C 51 % 1015,1 hPa 0,0 mm 7,7 km/h (2 Bft) O-NO 67 2 min 9,0 C 12,5 km/h (3 Bft)
25.05.2016 15:00 19,4 C 24,9 C 51 % 1015,1 hPa 0,0 mm 8,0 km/h (2 Bft) W 270 5 min 9,0 C 14,9 km/h (3 Bft)
25.05.2016 15:05 19,5 C 24,9 C 50 % 1015,1 hPa 0,0 mm 8,9 km/h (2 Bft) W 270 5 min 8,8 C 8,9 km/h (2 Bft)
25.05.2016 15:10 19,3 C 25,3 C 50 % 1015,0 hPa 0,0 mm 7,5 km/h (2 Bft) NW 315 5 min 8,6 C 22,9 km/h (4 Bft)
25.05.2016 15:15 19,4 C 25,0 C 50 % 1015,0 hPa 0,0 mm 7,5 km/h (2 Bft) NW 315 5 min 8,7 C 11,9 km/h (2 Bft)
25.05.2016 15:20 19,5 C 24,5 C 48 % 1015,0 hPa 0,0 mm 11,6 km/h (2 Bft) NW 315 5 min 8,2 C 13,7 km/h (3 Bft)
25.05.2016 15:25 19,5 C 24,2 C 48 % 1015,0 hPa 0,0 mm 11,3 km/h (2 Bft) W-SW 247 5 min 8,2 C 11,0 km/h (2 Bft)
25.05.2016 15:30 19,5 C 24,4 C 48 % 1014,8 hPa 0,0 mm 9,2 km/h (2 Bft) N-NW 337 5 min 8,2 C 9,8 km/h (2 Bft)
25.05.2016 15:35 19,6 C 24,5 C 47 % 1014,8 hPa 0,0 mm 8,9 km/h (2 Bft) W-NW 292 5 min 8,0 C 19,1 km/h (3 Bft)
25.05.2016 15:40 19,6 C 24,7 C 48 % 1014,8 hPa 0,0 mm 8,3 km/h (2 Bft) W-NW 292 5 min 8,3 C 6,3 km/h (2 Bft)
25.05.2016 15:45 19,5 C 24,8 C 48 % 1014,8 hPa 0,0 mm 8,9 km/h (2 Bft) NW 315 5 min 8,2 C 10,4 km/h (2 Bft)
25.05.2016 15:50 19,4 C 24,8 C 48 % 1014,6 hPa 0,0 mm 10,4 km/h (2 Bft) NW 315 5 min 8,1 C 16,1 km/h (3 Bft)
25.05.2016 15:55 19,4 C 24,7 C 47 % 1014,6 hPa 0,0 mm 10,7 km/h (2 Bft) NW 315 5 min 7,8 C 11,9 km/h (2 Bft)
25.05.2016 16:00 19,3 C 24,4 C 47 % 1014,6 hPa 0,0 mm 10,4 km/h (2 Bft) O-SO 112 5 min 7,7 C 3,3 km/h (1 Bft)
25.05.2016 16:05 19,1 C 25,0 C 45 % 1014,6 hPa 0,0 mm 7,5 km/h (2 Bft) SW 225 5 min 6,9 C 0,0 km/h (0 Bft)
25.05.2016 16:10 19,0 C 25,9 C 49 % 1014,8 hPa 0,0 mm 3,9 km/h (1 Bft) NW 315 5 min 8,0 C 11,0 km/h (2 Bft)
25.05.2016 16:15 18,9 C 25,0 C 50 % 1014,8 hPa 0,0 mm 7,2 km/h (2 Bft) NW 315 5 min 8,2 C 8,9 km/h (2 Bft)
25.05.2016 16:20 18,7 C 23,0 C 53 % 1014,8 hPa 0,0 mm 10,4 km/h (2 Bft) NW 315 5 min 8,9 C 14,9 km/h (3 Bft)
25.05.2016 16:25 18,8 C 23,5 C 55 % 1014,8 hPa 0,0 mm 10,1 km/h (2 Bft) W 270 5 min 9,6 C 11,6 km/h (2 Bft)
25.05.2016 16:30 18,7 C 24,0 C 55 % 1014,8 hPa 0,0 mm 9,8 km/h (2 Bft) N 360 5 min 9,5 C 25,3 km/h (4 Bft)
25.05.2016 16:35 18,6 C 24,2 C 55 % 1014,8 hPa 0,0 mm 10,7 km/h (2 Bft) NW 315 5 min 9,4 C 27,4 km/h (4 Bft)
25.05.2016 16:40 18,6 C 23,6 C 55 % 1014,8 hPa 0,0 mm 11,3 km/h (2 Bft) N-NW 337 5 min 9,4 C 14,0 km/h (3 Bft)
25.05.2016 16:45 18,6 C 22,7 C 55 % 1014,8 hPa 0,0 mm 10,7 km/h (2 Bft) W-NW 292 5 min 9,4 C 8,9 km/h (2 Bft)
25.05.2016 16:50 18,6 C 21,4 C 55 % 1014,9 hPa 0,0 mm 9,5 km/h (2 Bft) O-NO 67 5 min 9,4 C 13,4 km/h (3 Bft)
25.05.2016 16:55 18,6 C 21,2 C 55 % 1014,9 hPa 0,0 mm 8,9 km/h (2 Bft) S 180 0 min 9,4 C 4,8 km/h (1 Bft)
25.05.2016 17:00 18,7 C 21,4 C 54 % 1014,9 hPa 0,0 mm 6,9 km/h (2 Bft) NW 315 0 min 9,2 C 8,9 km/h (2 Bft)
25.05.2016 17:05 18,7 C 21,5 C 54 % 1014,9 hPa 0,0 mm 7,5 km/h (2 Bft) O 90 5 min 9,2 C 4,8 km/h (1 Bft)
25.05.2016 17:10 19,0 C 21,7 C 55 % 1014,8 hPa 0,0 mm 8,6 km/h (2 Bft) NO 45 0 min 9,8 C 20,6 km/h (4 Bft)
25.05.2016 17:15 18,8 C 21,4 C 53 % 1014,8 hPa 0,0 mm 9,2 km/h (2 Bft) SO 135 5 min 9,0 C 8,9 km/h (2 Bft)
25.05.2016 17:20 18,7 C 20,9 C 53 % 1014,8 hPa 0,0 mm 11,0 km/h (2 Bft) O-NO 67 0 min 8,9 C 9,8 km/h (2 Bft)
25.05.2016 17:25 18,6 C 20,9 C 53 % 1014,8 hPa 0,0 mm 8,9 km/h (2 Bft) O-NO 67 0 min 8,8 C 9,8 km/h (2 Bft)
25.05.2016 17:30 18,5 C 20,5 C 54 % 1014,7 hPa 0,0 mm 8,6 km/h (2 Bft) N-NO 22 0 min 9,0 C 8,3 km/h (2 Bft)
25.05.2016 17:35 18,5 C 20,6 C 54 % 1014,7 hPa 0,0 mm 9,2 km/h (2 Bft) NO 45 0 min 9,0 C 20,9 km/h (4 Bft)
25.05.2016 17:40 18,6 C 20,7 C 54 % 1014,7 hPa 0,0 mm 9,2 km/h (2 Bft) N-NO 22 0 min 9,1 C 13,7 km/h (3 Bft)
25.05.2016 17:45 18,5 C 20,7 C 53 % 1014,7 hPa 0,0 mm 9,8 km/h (2 Bft) N-NO 22 0 min 8,7 C 8,0 km/h (2 Bft)
25.05.2016 17:50 18,4 C 20,6 C 54 % 1014,8 hPa 0,0 mm 8,3 km/h (2 Bft) O 90 0 min 8,9 C 7,2 km/h (2 Bft)
25.05.2016 17:53 18,3 C 20,5 C 53 % 1014,8 hPa 0,0 mm 7,7 km/h (2 Bft) N-NW 337 0 min 8,6 C 13,4 km/h (3 Bft)
25.05.2016 17:56 18,3 C 20,5 C 53 % 1014,8 hPa 0,0 mm 7,7 km/h (2 Bft) N-NW 337 0 min 8,6 C 13,4 km/h (3 Bft)
25.05.2016 18:00 18,0 C 20,0 C 54 % 1014,8 hPa 0,0 mm 6,9 km/h (2 Bft) N-NO 22 0 min 8,6 C 8,3 km/h (2 Bft)
25.05.2016 18:05 18,0 C 19,8 C 54 % 1014,8 hPa 0,0 mm 6,9 km/h (2 Bft) S-SO 157 0 min 8,6 C 11,6 km/h (2 Bft)
25.05.2016 18:10 18,0 C 19,7 C 55 % 1014,7 hPa 0,0 mm 8,0 km/h (2 Bft) N-NW 337 0 min 8,8 C 11,9 km/h (2 Bft)
25.05.2016 18:15 18,0 C 19,7 C 55 % 1014,7 hPa 0,0 mm 7,7 km/h (2 Bft) SO 135 0 min 8,8 C 5,1 km/h (1 Bft)
25.05.2016 18:20 17,9 C 19,3 C 55 % 1014,7 hPa 0,0 mm 8,6 km/h (2 Bft) O-NO 67 0 min 8,7 C 13,7 km/h (3 Bft)
25.05.2016 18:25 17,8 C 19,2 C 56 % 1014,7 hPa 0,0 mm 10,4 km/h (2 Bft) NO 45 0 min 8,9 C 17,0 km/h (3 Bft)
25.05.2016 18:30 17,9 C 19,1 C 56 % 1014,6 hPa 0,0 mm 10,7 km/h (2 Bft) N-NO 22 0 min 9,0 C 15,2 km/h (3 Bft)
25.05.2016 18:35 17,8 C 18,8 C 57 % 1014,6 hPa 0,0 mm 8,9 km/h (2 Bft) SO 135 0 min 9,2 C 3,9 km/h (1 Bft)
25.05.2016 18:40 17,6 C 18,6 C 57 % 1014,6 hPa 0,0 mm 8,6 km/h (2 Bft) N-NO 22 0 min 9,0 C 17,6 km/h (3 Bft)
25.05.2016 18:45 17,5 C 18,6 C 56 % 1014,6 hPa 0,0 mm 8,3 km/h (2 Bft) N-NO 22 0 min 8,6 C 10,4 km/h (2 Bft)
25.05.2016 18:50 17,5 C 19,3 C 56 % 1014,8 hPa 0,0 mm 10,4 km/h (2 Bft) N-NO 22 0 min 8,6 C 14,3 km/h (3 Bft)
25.05.2016 18:55 17,4 C 19,5 C 57 % 1014,8 hPa 0,0 mm 10,1 km/h (2 Bft) N-NW 337 0 min 8,8 C 3,9 km/h (1 Bft)
25.05.2016 19:00 17,1 C 18,5 C 57 % 1014,8 hPa 0,0 mm 7,2 km/h (2 Bft) N-NW 337 0 min 8,5 C 5,4 km/h (1 Bft)
25.05.2016 19:05 17,0 C 18,1 C 58 % 1014,8 hPa 0,0 mm 5,7 km/h (1 Bft) O 90 0 min 8,7 C 7,5 km/h (2 Bft)
25.05.2016 19:10 16,8 C 17,7 C 58 % 1014,8 hPa 0,0 mm 4,5 km/h (1 Bft) N-NW 337 0 min 8,5 C 0,0 km/h (0 Bft)
25.05.2016 19:15 16,7 C 17,5 C 58 % 1014,8 hPa 0,0 mm 3,3 km/h (1 Bft) N-NO 22 0 min 8,4 C 4,8 km/h (1 Bft)
25.05.2016 19:20 16,6 C 17,5 C 59 % 1014,8 hPa 0,0 mm 1,5 km/h (1 Bft) N-NO 22 0 min 8,6 C 0,0 km/h (0 Bft)
25.05.2016 19:25 16,7 C 17,6 C 59 % 1014,8 hPa 0,0 mm 1,5 km/h (1 Bft) N 360 0 min 8,6 C 4,2 km/h (1 Bft)
25.05.2016 19:30 16,7 C 17,7 C 59 % 1014,9 hPa 0,0 mm 0,9 km/h (0 Bft) NO 45 0 min 8,6 C 0,0 km/h (0 Bft)
25.05.2016 19:35 16,8 C 17,7 C 60 % 1014,9 hPa 0,0 mm 1,8 km/h (1 Bft) N-NO 22 0 min 9,0 C 0,0 km/h (0 Bft)
25.05.2016 19:40 16,7 C 17,6 C 60 % 1014,9 hPa 0,0 mm 3,0 km/h (1 Bft) N-NO 22 0 min 8,9 C 9,2 km/h (2 Bft)
25.05.2016 19:45 16,8 C 18,1 C 60 % 1014,9 hPa 0,0 mm 3,0 km/h (1 Bft) N 360 0 min 9,0 C 3,0 km/h (1 Bft)
25.05.2016 19:50 16,9 C 19,3 C 59 % 1015,0 hPa 0,0 mm 4,8 km/h (1 Bft) NO 45 5 min 8,8 C 11,6 km/h (2 Bft)
25.05.2016 19:55 16,8 C 19,6 C 59 % 1015,0 hPa 0,0 mm 5,1 km/h (1 Bft) S-SO 157 5 min 8,7 C 6,0 km/h (2 Bft)
25.05.2016 20:00 16,8 C 19,7 C 59 % 1015,0 hPa 0,0 mm 6,0 km/h (2 Bft) N 360 5 min 8,7 C 4,5 km/h (1 Bft)
25.05.2016 20:05 16,8 C 19,5 C 59 % 1015,0 hPa 0,0 mm 5,1 km/h (1 Bft) NO 45 5 min 8,7 C 3,3 km/h (1 Bft)
25.05.2016 20:10 16,5 C 19,3 C 59 % 1015,0 hPa 0,0 mm 4,8 km/h (1 Bft) N-NO 22 5 min 8,5 C 3,3 km/h (1 Bft)
25.05.2016 20:15 16,4 C 19,1 C 59 % 1015,0 hPa 0,0 mm 5,1 km/h (1 Bft) O-NO 67 5 min 8,4 C 8,9 km/h (2 Bft)
25.05.2016 20:20 16,2 C 18,5 C 60 % 1015,0 hPa 0,0 mm 4,2 km/h (1 Bft) N-NO 22 5 min 8,4 C 0,0 km/h (0 Bft)
25.05.2016 20:25 16,1 C 18,1 C 60 % 1015,0 hPa 0,0 mm 3,0 km/h (1 Bft) NO 45 0 min 8,3 C 6,0 km/h (2 Bft)
25.05.2016 20:30 15,9 C 17,4 C 61 % 1015,1 hPa 0,0 mm 3,0 km/h (1 Bft) N-NO 22 0 min 8,4 C 0,0 km/h (0 Bft)
25.05.2016 20:35 15,7 C 16,8 C 61 % 1015,1 hPa 0,0 mm 2,1 km/h (1 Bft) NO 45 0 min 8,2 C 0,0 km/h (0 Bft)
25.05.2016 20:40 15,1 C 16,0 C 63 % 1015,1 hPa 0,0 mm 0,3 km/h (0 Bft) S-SO 157 0 min 8,1 C 0,0 km/h (0 Bft)
25.05.2016 20:45 14,7 C 15,2 C 65 % 1015,1 hPa 0,0 mm 0,3 km/h (0 Bft) SO 135 0 min 8,2 C 0,0 km/h (0 Bft)
25.05.2016 20:50 14,3 C 14,3 C 66 % 1015,1 hPa 0,0 mm 0,0 km/h (0 Bft) S 180 0 min 8,0 C 0,0 km/h (0 Bft)
25.05.2016 20:55 14,1 C 13,8 C 67 % 1015,1 hPa 0,0 mm 0,0 km/h (0 Bft) S-SO 157 0 min 8,1 C 0,0 km/h (0 Bft)
25.05.2016 20:57 14,1 C 13,8 C 67 % 1015,1 hPa 0,0 mm 0,0 km/h (0 Bft) S-SO 157 0 min 8,1 C 0,0 km/h (0 Bft)
25.05.2016 21:00 13,7 C 13,3 C 68 % 1015,1 hPa 0,0 mm 0,0 km/h (0 Bft) S 180 0 min 7,9 C 0,0 km/h (0 Bft)
25.05.2016 21:05 13,5 C 13,1 C 69 % 1015,1 hPa 0,0 mm 0,0 km/h (0 Bft) S 180 0 min 7,9 C 0,0 km/h (0 Bft)
25.05.2016 21:10 13,3 C 12,9 C 70 % 1015,2 hPa 0,0 mm 0,0 km/h (0 Bft) S 180 0 min 7,9 C 0,0 km/h (0 Bft)
25.05.2016 21:15 12,7 C 12,6 C 71 % 1015,2 hPa 0,0 mm 0,0 km/h (0 Bft) S-SO 157 0 min 7,6 C 0,0 km/h (0 Bft)
25.05.2016 21:20 12,3 C 12,2 C 72 % 1015,2 hPa 0,0 mm 0,0 km/h (0 Bft) S 180 0 min 7,4 C 0,0 km/h (0 Bft)
25.05.2016 21:25 12,1 C 11,9 C 73 % 1015,2 hPa 0,0 mm 0,0 km/h (0 Bft) S-SO 157 0 min 7,4 C 0,0 km/h (0 Bft)
25.05.2016 21:30 12,0 C 11,8 C 75 % 1015,4 hPa 0,0 mm 0,0 km/h (0 Bft) SO 135 0 min 7,7 C 0,0 km/h (0 Bft)
25.05.2016 21:35 12,0 C 11,6 C 75 % 1015,4 hPa 0,0 mm 0,0 km/h (0 Bft) S 180 0 min 7,7 C 0,0 km/h (0 Bft)
25.05.2016 21:40 11,4 C 11,2 C 75 % 1015,4 hPa 0,0 mm 0,0 km/h (0 Bft) SO 135 0 min 7,1 C 0,0 km/h (0 Bft)
25.05.2016 21:45 11,1 C 11,0 C 76 % 1015,4 hPa 0,0 mm 0,0 km/h (0 Bft) S 180 0 min 7,0 C 0,0 km/h (0 Bft)
25.05.2016 21:50 11,2 C 11,0 C 77 % 1015,6 hPa 0,0 mm 0,0 km/h (0 Bft) O-NO 67 0 min 7,3 C 0,0 km/h (0 Bft)
25.05.2016 21:55 11,2 C 10,9 C 78 % 1015,6 hPa 0,0 mm 0,0 km/h (0 Bft) SO 135 0 min 7,5 C 0,0 km/h (0 Bft)
25.05.2016 22:00 11,2 C 10,9 C 78 % 1015,6 hPa 0,0 mm 0,0 km/h (0 Bft) O-NO 67 0 min 7,5 C 0,0 km/h (0 Bft)
25.05.2016 22:05 11,0 C 10,6 C 78 % 1015,6 hPa 0,0 mm 0,0 km/h (0 Bft) SO 135 0 min 7,3 C 0,0 km/h (0 Bft)
25.05.2016 22:10 10,6 C 10,4 C 78 % 1015,8 hPa 0,0 mm 0,0 km/h (0 Bft) O-SO 112 0 min 6,9 C 0,0 km/h (0 Bft)
25.05.2016 22:15 10,5 C 10,0 C 78 % 1015,8 hPa 0,0 mm 0,0 km/h (0 Bft) S-SO 157 0 min 6,8 C 0,0 km/h (0 Bft)
25.05.2016 22:20 10,2 C 9,8 C 78 % 1015,8 hPa 0,0 mm 0,0 km/h (0 Bft) O-NO 67 0 min 6,5 C 0,0 km/h (0 Bft)
25.05.2016 22:25 10,1 C 9,8 C 78 % 1015,8 hPa 0,0 mm 0,0 km/h (0 Bft) S-SO 157 0 min 6,4 C 0,0 km/h (0 Bft)
25.05.2016 22:30 10,5 C 10,3 C 80 % 1015,9 hPa 0,0 mm 0,0 km/h (0 Bft) S 180 0 min 7,2 C 0,0 km/h (0 Bft)
25.05.2016 22:35 10,3 C 10,2 C 80 % 1015,9 hPa 0,0 mm 0,0 km/h (0 Bft) NO 45 0 min 7,0 C 0,0 km/h (0 Bft)
25.05.2016 22:40 10,1 C 9,8 C 79 % 1015,9 hPa 0,0 mm 0,0 km/h (0 Bft) N-NW 337 0 min 6,6 C 0,0 km/h (0 Bft)
25.05.2016 22:45 9,9 C 9,6 C 80 % 1015,9 hPa 0,0 mm 0,0 km/h (0 Bft) SO 135 0 min 6,6 C 0,0 km/h (0 Bft)
25.05.2016 22:50 10,1 C 9,9 C 81 % 1016,1 hPa 0,0 mm 0,0 km/h (0 Bft) SO 135 0 min 7,0 C 0,0 km/h (0 Bft)
25.05.2016 22:55 10,2 C 10,0 C 81 % 1016,1 hPa 0,0 mm 0,0 km/h (0 Bft) S 180 0 min 7,1 C 0,0 km/h (0 Bft)
25.05.2016 23:00 10,1 C 9,8 C 81 % 1016,1 hPa 0,0 mm 0,0 km/h (0 Bft) N-NO 22 0 min 7,0 C 0,0 km/h (0 Bft)
25.05.2016 23:05 9,9 C 9,6 C 81 % 1016,1 hPa 0,0 mm 0,0 km/h (0 Bft) NW 315 0 min 6,8 C 0,0 km/h (0 Bft)
25.05.2016 23:10 9,7 C 9,4 C 81 % 1016,2 hPa 0,0 mm 0,0 km/h (0 Bft) N-NO 22 0 min 6,6 C 0,0 km/h (0 Bft)
25.05.2016 23:15 9,8 C 9,5 C 81 % 1016,2 hPa 0,0 mm 0,0 km/h (0 Bft) S-SO 157 0 min 6,7 C 0,0 km/h (0 Bft)
25.05.2016 23:20 10,2 C 9,9 C 82 % 1016,2 hPa 0,0 mm 0,0 km/h (0 Bft) SO 135 0 min 7,3 C 0,0 km/h (0 Bft)
25.05.2016 23:25 10,2 C 9,9 C 82 % 1016,2 hPa 0,0 mm 0,0 km/h (0 Bft) S-SO 157 0 min 7,3 C 0,0 km/h (0 Bft)
25.05.2016 23:30 10,1 C 10,0 C 82 % 1016,4 hPa 0,0 mm 0,0 km/h (0 Bft) S-SO 157 0 min 7,2 C 0,0 km/h (0 Bft)
25.05.2016 23:35 10,3 C 10,2 C 83 % 1016,4 hPa 0,0 mm 0,0 km/h (0 Bft) SO 135 0 min 7,5 C 0,0 km/h (0 Bft)
25.05.2016 23:40 10,3 C 10,3 C 83 % 1016,4 hPa 0,0 mm 0,0 km/h (0 Bft) N-NO 22 0 min 7,5 C 0,0 km/h (0 Bft)
25.05.2016 23:45 10,3 C 10,2 C 82 % 1016,4 hPa 0,0 mm 0,0 km/h (0 Bft) NO 45 0 min 7,4 C 0,0 km/h (0 Bft)
25.05.2016 23:50 10,3 C 10,1 C 82 % 1016,2 hPa 0,0 mm 0,0 km/h (0 Bft) N-NO 22 0 min 7,4 C 0,0 km/h (0 Bft)
25.05.2016 23:55 10,3 C 10,1 C 82 % 1016,2 hPa 0,0 mm 0,0 km/h (0 Bft) W-SW 247 0 min 7,4 C 0,0 km/h (0 Bft)
25.05.2016 23:58 10,3 C 10,1 C 82 % 1016,2 hPa 0,0 mm 0,0 km/h (0 Bft) W-SW 247 0 min 7,4 C 0,0 km/h (0 Bft)
_ Min-Zeit 02:25 02:15 16:05 05:45 - 23:58 - - - 02:25 23:58
Minimum _ 5,6 C 5,4 C 45 % 1013,7 hPa - 0,0 km/h (0 Bft) - - - 3,4 C 0,0 km/h (0 Bft)
_ Max-Zeit 15:40 16:10 07:15 12:25 23:58 15:20 - - 20:20 14:10 16:35
Maximum _ 19,6 C 25,9 C 87 % 1016,6 hPa 0,0 mm 11,6 km/h
NW (2 Bft)
- - 5 min 10,5 C 27,4 km/h
NW (4 Bft)
Durchschnitt _ 12,5 C 14,6 C 72 % 1014,9 hPa #0,0 mm 3,1 km/h (1 Bft) N-NO - #9:10 h 7,1 C 4,1 km/h (1 Bft)